L’AEROCLUB LOUDUNAIS ET L’ANEG PARTENAIRES DU TELETHON 2020

OFFREZ VOUS OU OFFREZ A VOS PROCHES

UN VOL DE DECOUVERTE EN

CHARIOT ASCENSIONNEL, EN AVION OU EN ULM

Un cadeau de Noël extraordinaire doublé d’une action envers le Téléthon

Information en heures locale pour LFDL
26 mai 2022

Metar
LFBI 260330Z AUTO 26006KT 9999 OVC032 14/11 Q1025 TEMPO BKN008

Lever du soleil : 06:13

Coucher du soleil : 21:39

Actualité

Nous sommes heureux d’accueillir un ULM Savannah au sein de notre flotte. Grace à cet appareil, vous pourrez découvrir une …

Bonjour tout le monde !

Bienvenue à tous, l’ Aéroclub Loudunais vous accueille sur son nouveau site internet.

Newsletter Sign Up

Praesent libero sed cursus anted dapibus diam